Back to catalog

SL-8 R/B

AlivePO
NORAD 21088·ROCKET BODY·🇷🇺 Russia

Launched Jan 29, 1991 from Plesetsk Cosmodrome

Loading…

Next Passes (next 24 hours)

TLE

FreshSource: Space-Track

Epoch: Sep 14, 2026, 09:31 UTC

1 21088U 91006B   26257.39689932  .00000107  00000-0  92327-4 0  9991
2 21088  82.9440  29.6441 0021536 223.8628 156.4884 13.77522484790052

Track SL-8 R/B in real time with AllMySat

Download on the App Store